Regional Weather Roundup
Issued by NWS

Home | Current Version | Previous Version | Text Only | Print | Product List | Glossary Off
Versions: 1 2 3 4 5 6 7 8 9 10 11 12 13 14 15 16 17 18 19 20 21 22 23 24 25 26 27 28 29 30 31 32 33 34 35 36 37 38 39 40 41 42 43 44 45 46 47 48 49 50

000
ASUS45 KTFX 291110
RWRMT
MONTANA REGIONAL WEATHER ROUNDUP
NATIONAL WEATHER SERVICE GREAT FALLS MT
500 AM MDT MON JUN 29 2015

NOTE: "FAIR" INDICATES FEW OR NO CLOUDS BELOW 12000 FEET WITH NO
SIGNIFICANT WEATHER AND/OR OBSTRUCTIONS TO VISIBILITY.

MTZ001>007-043-291200-
WEST OF THE DIVIDE

CITY           SKY/WX    TMP DP  RH WIND       PRES   REMARKS
KALISPELL      CLOUDY    64  55  72 S3        29.98R
MISSOULA       PTCLDY    67  48  50 S3        30.01R
BUTTE          PTCLDY    65  46  50 CALM      30.22R
MULLAN PASS    CLOUDY    68  46  45 NW7       30.20F
DEER LODGE       N/A     55  48  76 CALM      30.19R
EUREKA           N/A     64  52  63 CALM      29.98S
HAMILTON         N/A     68  50  52 S6        30.03S
PLAINS           N/A     67  57  70 CALM      29.98R
RONAN            N/A     69  55  60 CALM      30.02S
$$

MTZ008-052>055-291200-
SOUTHWEST MONTANA

CITY           SKY/WX    TMP DP  RH WIND       PRES   REMARKS
BOZEMAN        PTCLDY    60  48  64 S5        30.15R
DILLON         CLEAR     61  44  53 SE7       30.18S
W YELLOWSTONE  PTCLDY    45  43  93 CALM      30.34S
THREE FORKS      N/A     57  57 100 CALM      30.12R
TWIN BRIDGES     N/A     64  42  44 E1        30.15R
$$

MTZ009-010-012-014-046-048-049-054-291200-
EAST SLOPES AND CENTRAL MONTANA

CITY           SKY/WX    TMP DP  RH WIND       PRES   REMARKS
CUT BANK       CLEAR     57  51  80 N5        30.12S
GREAT FALLS    PTCLDY    61  47  59 W9        30.09S
MALMSTROM AFB  PTCLDY    66  47  50 NW3       30.09R
HELENA         CLEAR     66  46  48 W5        30.12R
$$

MTZ011-013-016-021-045-047-050-051-291200-
NORTH CENTRAL MONTANA

CITY           SKY/WX    TMP DP  RH WIND       PRES   REMARKS
HAVRE          PTCLDY    68  50  52 E9        30.05R
CHINOOK          N/A     61  54  77 CALM      30.05R
FORT BENTON      N/A     63  48  59 S6        30.07R
$$

MTZ017>020-022>027-061-062-291200-
NORTHEAST MONTANA

CITY           SKY/WX    TMP DP  RH WIND       PRES   REMARKS
GLASGOW        CLEAR     63  54  72 NW3       29.99R
JORDAN           N/A     60  54  80 W5        30.02R
SIDNEY         PTCLDY    59  54  82 CALM      29.99S
WOLF POINT     CLEAR     61  56  83 CALM      29.98S
MALTA            N/A     60  52  75 CALM      29.98R
PLENTYWOOD       N/A     66  57  72 NE6       29.99S
POPLAR           N/A     61  57  88 N3        29.99S
SCOBEY           N/A     56  48  74 CALM      29.99S
$$

MTZ028>42-056>058-291200-
SOUTHCENTRAL AND SOUTHEAST MONTANA

CITY           SKY/WX    TMP DP  RH WIND       PRES   REMARKS
BAKER          CLEAR     61  57  87 E8        30.05R
BILLINGS       PTCLDY    69  52  54 SW15      30.10R
LIVINGSTON     CLEAR     58  49  72 CALM      30.18R
MILES CITY     CLEAR     65  56  72 W3        30.01R
BIG TIMBER       N/A     64  48  55 SW6       30.17S
EKALAKA          N/A     65  55  69 SE10      30.04S
FORSYTH          N/A     66  57  72 CALM      30.02R
LAUREL           N/A     62  48  60 CALM      30.08S
ROUNDUP          N/A     61  50  67 SW1       30.01R
$$

REGIONAL REPORTS...DAKOTAS

CITY           SKY/WX    TMP DP  RH WIND       PRES   REMARKS
WILLISTON      PTCLDY    57  54  89 CALM      29.98S
MINOT          PTCLDY    65  57  75 SW9       29.93S
DICKINSON      CLEAR     57  55  93 W5        30.00S
BEACH          FAIR      57  57 100 S5        30.04S
CROSBY         FAIR      57  57 100 CALM      29.99R FOG
BISMARCK       CLEAR     58  56  93 W3        29.97S
GRAND FORKS    CLEAR     62  59  90 W7        29.81S
FARGO          CLEAR     62  59  90 W3        29.85R
BUFFALO SD       N/A     64  56  75 CALM      29.99S
RAPID CITY     LGT RAIN  67  56  67 W20G26    30.08R
$$

REGIONAL REPORTS...WYOMING/IDAHO/WASHINGTON

CITY           SKY/WX    TMP DP  RH WIND       PRES   REMARKS
GILLETTE       CLEAR     67  53  61 VRB5      30.10R
SHERIDAN       CLEAR     60  50  69 CALM      30.10S
BUFFALO WY     CLEAR     70  44  39 W13       30.17S
CODY           PTCLDY    66  46  48 S7        30.22R
YELLOWSTONE LA   N/A     46  42  86 CALM      30.45S
IDAHO FALLS    CLEAR     58  54  86 N6        30.12S
SALMON         MOCLDY    66  46  48 CALM      30.06S
BOISE          MOCLDY    85  51  31 W6        29.93S
SPOKANE        CLOUDY    84  54  35 VRB5      29.89R
$$

REGIONAL REPORTS...ALBERTA

CITY           SKY/WX    TMP DP  RH WIND       PRES   REMARKS
EDMONTON       CLEAR     59  46  63 NE3       30.06S
CALGARY        MOCLDY    68  54  60 S6        30.13S
LETHBRIDGE     CLEAR     61  59  94 NW6       30.08S
MEDICINE HAT   CLEAR     64  50  59 NE7       30.06S
WATERTON GATE    N/A     54  52  94 SW5         N/A
CARDSTON         N/A     57  57 100 NW1         N/A
ONEFOUR          N/A     64  46  52 NE6         N/A
$$

REGIONAL REPORTS...SASKATCHEWAN

CITY           SKY/WX    TMP DP  RH WIND       PRES   REMARKS
SWIFT CURRENT  CLEAR     61  54  77 W9        30.04R
REGINA         MOCLDY    64  54  68 W2        29.98R
SASKATOON      CLOUDY    61  52  72 NE6       30.02R SMOKE
CYPRESS HILLS    N/A     59  46  63 W2          N/A
VAL MARIE        N/A     55  48  76 CALM        N/A
ASSINIBOIA       N/A     52  50  93 S1          N/A
$$


USA.gov is the U.S. government's official web portal to all federal, state and local government web resources and services.